"Timestamp","TZ","WindDir_Mean (deg)","WindSpd_Mean (km/h)","WindSpd_Min (km/h)","WindSpd_Max (km/h)","Temp_Mean (deg)","RH_Mean (%)","MSLP_Mean (hPa)","Rain_Acc (mm)","Rain_Intensity (mm/h)","Hail_Acc (hits/cm2)","Hail_Intensity (hits/cm2hr)","Solar_Mean (W/m2)"
2022/03/29 00:00:00.003,n,190,16.2,13.32,19.44,19.5,81.3,1006.32,0,0,0,0,0.025215
2022/03/29 00:01:00.000,n,192,16.919998,14.4,19.08,19.5,81.3,1006.32,0,0,0,0,0.027809
2022/03/29 00:02:00.000,n,183,17.64,14.4,21.24,19.5,81.3,1006.32,0,0,0,0,0.029602
2022/03/29 00:03:00.000,n,149,5.4,2.52,10.8,19.5,81.4,1006.32,0,0,0,0,0.027809
2022/03/29 00:04:00.007,n,180,10.440002,9,12.6,19.5,81.3,1006.32,0,0,0,0,0.031319
2022/03/29 00:05:00.004,n,178,13.68,11.52,16.56,19.5,81.3,1006.32,0,0,0,0,0.024376
2022/03/29 00:06:00.003,n,266,5.04,2.16,8.64,19.5,81.3,1006.32,0,0,0,0,0.032158
2022/03/29 00:07:00.000,n,208,13.68,11.88,20.519998,19.5,81.2,1006.22,0,0,0,0,0.031319
2022/03/29 00:08:00.013,n,164,9,1.08,11.52,19.5,81.2,1006.22,0,0,0,0,0.028725
2022/03/29 00:09:00.010,n,178,15.12,12.24,16.919998,19.5,81.3,1006.12,0,0,0,0,0.026093
2022/03/29 00:10:00.000,n,174,20.16,16.919998,22.68,19.5,81.2,1006.12,0,0,0,0,0.028725
2022/03/29 00:11:00.000,n,167,7.92,5.4,12.24,19.5,81.2,1006.12,0,0,0,0,0.026093
2022/03/29 00:12:00.000,n,189,18.359998,16.56,19.8,19.5,81.3,1006.02,0,0,0,0,0.027809
2022/03/29 00:13:00.000,n,189,15.48,14.04,16.2,19.5,81.4,1006.12,0,0,0,0,0.02697
2022/03/29 00:14:00.000,n,167,12.6,9,15.12,19.5,81.4,1006.12,0,0,0,0,0.030441
2022/03/29 00:15:00.007,n,192,17.64,15.12,20.880002,19.5,81.4,1006.02,0,0,0,0,0.031319
2022/03/29 00:16:00.005,n,168,9.72,7.92,12.24,19.5,81.5,1006.02,0,0,0,0,0.029602
2022/03/29 00:17:00.002,n,222,6.84,4.32,11.16,19.5,81.6,1006.02,0,0,0,0,0.031319
2022/03/29 00:18:00.015,n,134,8.64,5.76,11.88,19.5,81.6,1006.02,0,0,0,0,0.032158
2022/03/29 00:19:00.000,n,230,5.4,1.08,8.28,19.5,81.7,1006.02,0,0,0,0,0.033035
2022/03/29 00:20:00.000,n,181,14.76,12.6,15.84,19.5,81.8,1005.92,0,0,0,0,0.030441
2022/03/29 00:21:00.000,n,161,5.04,2.16,6.84,19.4,81.8,1005.92,0,0,0,0,0.032158
2022/03/29 00:22:00.005,n,269,3.24,1.8,4.32,19.4,82,1005.92,0,0,0,0,0.033951
2022/03/29 00:23:00.002,n,217,6.84,3.96,8.28,19.4,81.9,1005.92,0,0,0,0,0.033951
2022/03/29 00:24:00.000,n,161,11.88,9,15.48,19.4,81.9,1005.82,0,0,0,0,0.03479
2022/03/29 00:25:00.012,n,226,5.4,4.68,6.12,19.4,81.9,1005.82,0,0,0,0,0.040894
2022/03/29 00:26:00.009,n,252,10.08,7.2,13.68,19.4,81.9,1005.72,0,0,0,0,0.037384
2022/03/29 00:27:00.006,n,238,7.2,6.48,8.64,19.4,81.8,1005.62,0,0,0,0,0.040016
2022/03/29 00:28:00.000,n,275,11.52,8.64,13.68,19.4,81.8,1005.62,0,0,0,0,0.037384
2022/03/29 00:29:00.000,n,199,4.32,3.96,5.4,19.4,81.9,1005.62,0,0,0,0,0.039177
2022/03/29 00:30:00.000,n,175,5.76,4.32,6.84,19.4,82.1,1005.62,0,0,0,0,0.041771
2022/03/29 00:31:00.000,n,165,7.2,5.76,9.72,19.4,82.1,1005.52,0,0,0,0,0.04612
2022/03/29 00:32:00.000,n,261,9.72,9,10.440002,19.4,82.2,1005.52,0,0,0,0,0.040894
2022/03/29 00:33:00.006,n,182,8.64,5.04,10.08,19.4,82.1,1005.42,0,0,0,0,0.041771
2022/03/29 00:34:00.003,n,161,1.8,0,2.52,19.4,82.2,1005.42,0,0,0,0,0.04261
2022/03/29 00:35:00.000,n,178,11.16,6.12,14.76,19.4,82.2,1005.32,0,0,0,0,0.040016
2022/03/29 00:36:00.014,n,171,4.32,3.6,4.68,19.4,82.3,1005.32,0,0,0,0,0.040894
2022/03/29 00:37:00.000,n,261,7.92,7.2,8.64,19.4,82.4,1005.32,0,0,0,0,0.038261
2022/03/29 00:38:00.000,n,228,7.56,5.76,9.72,19.4,82.4,1005.32,0,0,0,0,0.041771
2022/03/29 00:39:00.000,n,249,7.2,6.12,9,19.4,82.5,1005.32,0,0,0,0,0.04261
2022/03/29 00:40:00.002,n,235,5.04,4.32,5.76,19.4,82.4,1005.32,0,0,0,0,0.038261
2022/03/29 00:41:00.000,n,292,4.68,3.96,5.04,19.3,82.4,1005.22,0,0,0,0,0.041771
2022/03/29 00:42:00.000,n,216,6.12,5.4,6.48,19.3,82.5,1005.22,0,0,0,0,0.039177
2022/03/29 00:43:00.009,n,265,6.84,6.12,7.56,19.3,82.5,1005.12,0,0,0,0,0.040894
2022/03/29 00:44:00.007,n,183,2.52,1.08,4.68,19.3,82.4,1005.12,0,0,0,0,0.041771
2022/03/29 00:45:00.004,n,297,6.48,5.04,8.28,19.3,82.7,1005.12,0,0,0,0,0.04261
2022/03/29 00:46:00.001,n,278,2.16,1.08,5.04,19.3,82.6,1005.12,0,0,0,0,0.041771
2022/03/29 00:47:00.000,n,185,7.56,6.48,8.28,19.3,82.5,1005.12,0,0,0,0,0.04261
2022/03/29 00:48:00.000,n,197,8.28,6.48,10.08,19.3,82.5,1005.22,0,0,0,0,0.044365
2022/03/29 00:49:00.000,n,159,4.68,2.88,6.84,19.3,82.5,1005.22,0,0,0,0,0.024338
2022/03/29 00:50:00.003,n,218,1.08,0.36,1.44,19.3,82.7,1005.32,0,0,0,0,0.032158
2022/03/29 00:51:00.001,n,306,2.16,1.44,3.24,19.3,82.9,1005.42,0,0,0,0,0.035667
2022/03/29 00:52:00.000,n,107,1.8,1.44,2.52,19.3,82.9,1005.42,0,0,0,0,0.033913
2022/03/29 00:53:00.012,n,249,6.84,5.4,8.64,19.3,82.6,1005.52,0,0,0,0,0.03479
2022/03/29 00:54:00.010,n,218,2.16,1.08,4.68,19.3,82.4,1005.52,0,0,0,0,0.033035
2022/03/29 00:55:00.000,n,180,6.84,6.48,7.2,19.3,82.2,1005.62,0,0,0,0,0.035667
2022/03/29 00:56:00.003,n,153,5.76,5.04,6.48,19.3,82.3,1005.62,0,0,0,0,0.033913
2022/03/29 00:57:00.000,n,168,6.84,6.48,7.2,19.3,82.2,1005.72,0,0,0,0,0.038261
2022/03/29 00:58:00.000,n,65,1.8,0.72,3.24,19.3,82.2,1005.72,0,0,0,0,0.03479
2022/03/29 00:59:00.000,n,176,8.64,7.56,9.36,19.3,82,1005.72,0,0,0,0,0.03479
2022/03/29 01:00:00.008,n,167,6.12,5.4,7.56,19.3,81.9,1005.72,0,0,0,0,0.037384
2022/03/29 01:01:00.005,n,168,7.92,7.2,8.64,19.3,81.7,1005.72,0,0,0,0,0.040016
2022/03/29 01:02:00.002,n,116,2.52,1.08,3.6,19.4,81.8,1005.72,0,0,0,0,0.035667
2022/03/29 01:03:00.015,n,98,1.8,1.08,2.16,19.4,81.7,1005.72,0,0,0,0,0.038261
2022/03/29 01:04:00.000,n,193,5.76,5.04,6.48,19.4,81.4,1005.72,0,0,0,0,0.04261
2022/03/29 01:05:00.000,n,259,5.04,3.6,5.4,19.4,81.2,1005.72,0,0,0,0,0.044365
2022/03/29 01:06:00.000,n,192,8.64,7.92,9,19.4,80.8,1005.62,0,0,0,0,0.050468
2022/03/29 01:07:00.004,n,181,5.76,4.68,6.48,19.4,80.8,1005.72,0,0,0,0,0.052185
2022/03/29 01:08:00.002,n,172,5.4,1.8,7.2,19.4,80.4,1005.62,0,0,0,0,0.056534
2022/03/29 01:09:00.000,n,227,3.6,3.24,3.96,19.5,80.2,1005.62,0,0,0,0,0.046959
2022/03/29 01:10:00.012,n,152,6.84,5.76,7.92,19.5,80,1005.62,0,0,0,0,0.046959
2022/03/29 01:11:00.009,n,136,5.04,4.32,6.48,19.5,79.8,1005.62,0,0,0,0,0.044365
2022/03/29 01:12:00.007,n,132,4.68,2.88,6.12,19.5,79.8,1005.62,0,0,0,0,0.043488
2022/03/29 01:13:00.000,n,157,11.88,9.36,14.04,19.6,79.3,1005.62,0,0,0,0,0.040016
2022/03/29 01:14:00.002,n,188,15.84,15.12,16.56,19.6,78.9,1005.62,0,0,0,0,0.037384
2022/03/29 01:15:00.000,n,183,12.6,11.88,13.32,19.6,78.8,1005.62,0,0,0,0,0.040894
2022/03/29 01:16:00.000,n,184,14.4,12.24,15.84,19.6,78.7,1005.52,0,0,0,0,0.04612
2022/03/29 01:17:00.000,n,172,8.28,6.48,10.440002,19.6,78.8,1005.52,0,0,0,0,0.046959
2022/03/29 01:18:00.007,n,180,10.440002,9.36,11.16,19.6,78.8,1005.52,0,0,0,0,0.03479
2022/03/29 01:19:00.004,n,184,4.32,3.6,4.68,19.7,79.2,1005.52,0,0,0,0,0.031319
2022/03/29 01:20:00.000,n,21,0.72,0.36,1.08,19.7,79.4,1005.52,0,0,0,0,0.033035
2022/03/29 01:21:00.013,n,144,12.6,10.08,15.12,19.6,79.3,1005.42,0,0,0,0,0.038261
2022/03/29 01:22:00.000,n,251,3.24,2.52,3.6,19.6,79.7,1005.42,0,0,0,0,0.03479
2022/03/29 01:23:00.000,n,272,2.16,1.44,2.52,19.6,80,1005.42,0,0,0,0,0.040894
2022/03/29 01:24:00.004,n,321,1.44,0.72,2.16,19.6,80.6,1005.42,0,0,0,0,0.039139
2022/03/29 01:25:00.002,n,90,2.88,1.8,3.96,19.6,80.2,1005.42,0,0,0,0,0.041733
2022/03/29 01:26:00.000,n,166,9,7.2,10.8,19.6,80.1,1005.42,0,0,0,0,0.040016
2022/03/29 01:27:00.000,n,264,2.52,2.16,3.24,19.5,80.1,1005.42,0,0,0,0,0.040894
2022/03/29 01:28:00.009,n,264,2.16,0.72,4.68,19.5,80.3,1005.42,0,0,0,0,0.040894
2022/03/29 01:29:00.006,n,172,7.2,5.04,8.64,19.5,80.3,1005.42,0,0,0,0,0.040894
2022/03/29 01:30:00.003,n,167,12.6,10.8,15.84,19.5,80.2,1005.42,0,0,0,0,0.040016
2022/03/29 01:31:00.000,n,194,7.92,6.12,9.72,19.5,80.1,1005.42,0,0,0,0,0.044365
2022/03/29 01:32:00.000,n,152,4.32,1.8,5.4,19.5,80.1,1005.32,0,0,0,0,0.038261
2022/03/29 01:33:00.000,n,174,4.32,3.24,5.04,19.5,80.3,1005.32,0,0,0,0,0.036545
2022/03/29 01:34:00.000,n,189,10.08,9.36,10.8,19.5,80.1,1005.32,0,0,0,0,0.040016
2022/03/29 01:35:00.006,n,156,8.28,3.96,12.24,19.5,80.2,1005.32,0,0,0,0,0.039139
2022/03/29 01:36:00.003,n,191,12.6,10.8,14.76,19.5,79.7,1005.22,0,0,0,0,0.041733
2022/03/29 01:37:00.000,n,236,5.4,1.08,6.48,19.5,79.9,1005.22,0,0,0,0,0.040016
2022/03/29 01:38:00.013,n,172,2.52,1.44,4.32,19.5,79.7,1005.22,0,0,0,0,0.036545
2022/03/29 01:39:00.011,n,263,3.96,1.08,6.48,19.5,79.9,1005.12,0,0,0,0,0.037384
2022/03/29 01:40:00.000,n,195,1.8,1.08,2.88,19.5,79.9,1005.12,0,0,0,0,0.037384
2022/03/29 01:41:00.000,n,202,3.6,1.08,5.04,19.5,79.8,1005.12,0,0,0,0,0.040016
2022/03/29 01:42:00.002,n,269,3.96,3.96,4.32,19.5,80.1,1005.22,0,0,0,0,0.036545
2022/03/29 01:43:00.000,n,142,3.24,1.08,5.76,19.5,80.2,1005.22,0,0,0,0,0.039139
2022/03/29 01:44:00.000,n,156,3.6,0.36,6.84,19.5,79.8,1005.22,0,0,0,0,0.038261
2022/03/29 01:45:00.010,n,185,6.12,5.76,6.48,19.5,79.8,1005.22,0,0,0,0,0.036545
2022/03/29 01:46:00.006,n,182,3.24,1.44,4.32,19.5,79.8,1005.22,0,0,0,0,0.038261
2022/03/29 01:47:00.003,n,223,5.4,3.6,6.84,19.5,80,1005.22,0,0,0,0,0.033035
2022/03/29 01:48:00.000,n,264,3.96,3.24,4.32,19.5,80.2,1005.22,0,0,0,0,0.036545
2022/03/29 01:49:00.000,n,213,6.48,4.32,8.28,19.5,80.2,1005.12,0,0,0,0,0.040894
2022/03/29 01:50:00.000,n,205,4.68,3.6,6.84,19.5,79.8,1005.12,0,0,0,0,0.038261
2022/03/29 01:51:00.000,n,312,3.96,1.44,8.64,19.5,79.8,1005.12,0,0,0,0,0.040016
2022/03/29 01:52:00.005,n,233,3.96,3.24,4.68,19.5,79.9,1005.12,0,0,0,0,0.039139
2022/03/29 01:53:00.002,n,178,2.52,0.72,2.88,19.5,79.9,1005.12,0,0,0,0,0.037384
2022/03/29 01:54:00.000,n,280,2.16,1.44,2.52,19.5,80,1005.12,0,0,0,0,0.036545
2022/03/29 01:55:00.012,n,166,0.72,0.36,1.44,19.5,80.1,1005.12,0,0,0,0,0.040016
2022/03/29 01:56:00.009,n,186,6.48,5.04,7.56,19.5,79.9,1005.12,0,0,0,0,0.040016
2022/03/29 01:57:00.006,n,259,3.24,1.8,3.96,19.5,80.3,1005.12,0,0,0,0,0.040894
2022/03/29 01:58:00.000,n,217,5.76,4.32,7.2,19.5,79.9,1005.12,0,0,0,0,0.041733
2022/03/29 01:59:00.000,n,272,5.4,3.96,7.2,19.5,79.7,1005.12,0,0,0,0,0.040016
2022/03/29 02:00:00.000,n,220,4.68,4.32,5.4,19.5,80,1005.12,0,0,0,0,0.041733
2022/03/29 02:01:00.000,n,264,5.04,4.32,5.76,19.5,80,1005.12,0,0,0,0,0.039139
2022/03/29 02:02:00.008,n,168,4.68,3.96,5.76,19.4,80,1005.12,0,0,0,0,0.040894
2022/03/29 02:03:00.005,n,197,0.72,0.36,1.08,19.5,80.2,1005.12,0,0,0,0,0.044365
2022/03/29 02:04:00.003,n,258,7.2,6.12,8.64,19.5,79.9,1005.02,0,0,0,0,0.041733
2022/03/29 02:05:00.000,n,203,6.12,4.68,7.56,19.4,79.7,1005.02,0,0,0,0,0.043488
2022/03/29 02:06:00.014,n,209,2.52,1.08,3.96,19.4,79.6,1004.92,0,0,0,0,0.044365
2022/03/29 02:07:00.000,n,102,1.08,0.36,2.16,19.4,79.7,1004.92,0,0,0,0,0.04261
2022/03/29 02:08:00.000,n,245,5.76,5.4,6.48,19.4,79.7,1004.92,0,0,0,0,0.046959
2022/03/29 02:09:00.000,n,249,3.24,2.16,3.96,19.4,79.8,1004.82,0,0,0,0,0.046959
2022/03/29 02:10:00.005,n,243,2.16,1.08,3.6,19.4,80.1,1004.82,0,0,0,0,0.046959
2022/03/29 02:11:00.002,n,258,5.4,3.6,7.56,19.4,79.8,1004.82,0,0,0,0,0.046959
2022/03/29 02:12:00.000,n,193,2.16,2.16,2.88,19.4,79.9,1004.72,0,0,0,0,0.046959
2022/03/29 02:13:00.003,n,303,7.2,5.76,8.28,19.4,80,1004.72,0,0,0,0,0.047836
2022/03/29 02:14:00.008,n,234,6.84,6.12,7.56,19.4,79.4,1004.72,0,0,0,0,0.046959
2022/03/29 02:15:00.013,n,156,6.48,2.16,9,19.4,79.3,1004.62,0,0,0,0,0.048714
2022/03/29 02:16:00.000,n,259,3.96,3.24,4.68,19.4,79.6,1004.62,0,0,0,0,0.046959
2022/03/29 02:17:00.000,n,230,5.4,4.32,5.76,19.4,79.3,1004.62,0,0,0,0,0.051308
2022/03/29 02:18:00.000,n,303,6.48,5.4,7.56,19.5,80.5,1004.62,0,0,0,0,0.026169
2022/03/29 02:19:00.000,n,229,1.8,1.08,2.52,19.5,79.9,1004.62,0,0,0,0,0.028763
2022/03/29 02:20:00.002,n,181,3.96,1.8,5.76,19.5,79.7,1004.62,0,0,0,0,0.031357
2022/03/29 02:21:00.007,n,183,6.84,6.12,7.56,19.5,79.1,1004.62,0,0,0,0,0.031357
2022/03/29 02:22:00.012,n,189,2.16,1.8,2.52,19.4,79,1004.62,0,0,0,0,0.033112
2022/03/29 02:23:00.001,n,199,5.76,5.04,6.48,19.4,79.1,1004.62,0,0,0,0,0.032234
2022/03/29 02:24:00.006,n,207,1.44,0.36,2.16,19.4,79.3,1004.62,0,0,0,0,0.035706
2022/03/29 02:25:00.000,n,239,2.88,2.52,3.24,19.5,79.9,1004.52,0,0,0,0,0.030479
2022/03/29 02:26:00.000,n,171,1.44,0.36,2.88,19.5,79.2,1004.52,0,0,0,0,0.030479
2022/03/29 02:27:00.005,n,254,5.76,4.68,6.48,19.5,79.8,1004.52,0,0,0,0,0.034828
2022/03/29 02:28:00.000,n,187,2.52,1.08,3.96,19.5,79.4,1004.52,0,0,0,0,0.039177
2022/03/29 02:29:00.000,n,214,1.44,0.72,2.52,19.5,78.9,1004.52,0,0,0,0,0.033112
2022/03/29 02:30:00.005,n,261,3.6,2.88,3.96,19.4,78.8,1004.52,0,0,0,0,0.034828
2022/03/29 02:31:00.010,n,290,3.6,3.24,4.32,19.4,79.2,1004.52,0,0,0,0,0.036583
2022/03/29 02:32:00.000,n,202,1.44,0.36,3.24,19.4,78.7,1004.52,0,0,0,0,0.034828
2022/03/29 02:33:00.004,n,309,1.08,0.36,1.8,19.4,79.9,1004.52,0,0,0,0,0.034828
2022/03/29 02:34:00.000,n,220,4.68,3.6,6.12,19.5,78.9,1004.52,0,0,0,0,0.032234
2022/03/29 02:35:00.000,n,215,2.88,2.52,4.32,19.4,78.8,1004.52,0,0,0,0,0.033112
2022/03/29 02:36:00.000,n,276,5.04,4.68,5.76,19.4,79.1,1004.42,0,0,0,0,0.03746
2022/03/29 02:37:00.000,n,246,3.24,2.52,3.96,19.5,78.9,1004.52,0,0,0,0,0.033112
2022/03/29 02:38:00.000,n,226,1.08,0.72,1.44,19.4,78.7,1004.52,0,0,0,0,0.035706
2022/03/29 02:39:00.004,n,268,3.24,2.88,3.6,19.4,78.6,1004.52,0,0,0,0,0.032234
2022/03/29 02:40:00.009,n,8,1.8,1.08,2.88,19.4,79.5,1004.52,0,0,0,0,0.03746
2022/03/29 02:41:00.000,n,226,2.52,2.16,2.88,19.5,79.2,1004.62,0,0,0,0,0.033951
2022/03/29 02:42:00.004,n,236,2.16,1.8,2.88,19.5,79.1,1004.62,0,0,0,0,0.033951
2022/03/29 02:43:00.000,n,297,1.8,1.44,2.16,19.5,79.3,1004.62,0,0,0,0,0.031357
2022/03/29 02:44:00.000,n,236,3.96,3.24,4.68,19.5,78.4,1004.62,0,0,0,0,0.033112
2022/03/29 02:45:00.005,n,159,3.24,1.44,4.32,19.5,78.4,1004.62,0,0,0,0,0.03746
2022/03/29 02:46:00.000,n,143,2.16,1.44,2.88,19.5,78.2,1004.62,0,0,0,0,0.033951
2022/03/29 02:47:00.000,n,140,3.24,2.52,4.68,19.4,78.3,1004.62,0,0,0,0,0.036583
2022/03/29 02:48:00.004,n,194,1.44,0.72,2.16,19.4,78.2,1004.62,0,0,0,0,0.033951
2022/03/29 02:49:00.010,n,120,0.36,0,0.72,19.4,78.3,1004.52,0,0,0,0,0.034828
2022/03/29 02:50:00.014,n,261,3.96,3.96,4.32,19.4,78.4,1004.52,0,0,0,0,0.035706
2022/03/29 02:51:00.003,n,333,0.72,0.72,1.08,19.5,78.9,1004.52,0,0,0,0,0.034828
2022/03/29 02:52:00.000,n,256,2.16,1.8,2.52,19.5,78.9,1004.52,0,0,0,0,0.03746
2022/03/29 02:53:00.000,n,209,7.2,5.76,8.64,19.5,78.5,1004.42,0,0,0,0,0.035706
2022/03/29 02:54:00.002,n,255,4.32,3.96,4.68,19.5,78.3,1004.42,0,0,0,0,0.03746
2022/03/29 02:55:00.000,n,257,2.16,1.8,2.52,19.4,78.3,1004.42,0,0,0,0,0.039177
2022/03/29 02:56:00.000,n,234,4.32,2.88,5.04,19.4,78.7,1004.32,0,0,0,0,0.038338
2022/03/29 02:57:00.002,n,272,3.96,3.24,4.32,19.5,78.8,1004.32,0,0,0,0,0.036583
2022/03/29 02:58:00.007,n,251,3.6,2.16,5.4,19.4,78.5,1004.32,0,0,0,0,0.039177
2022/03/29 02:59:00.013,n,268,3.6,3.24,3.96,19.4,78.6,1004.32,0,0,0,0,0.034828
2022/03/29 03:00:00.002,n,256,4.32,2.88,6.48,19.4,78.6,1004.32,0,0,0,0,0.033951
2022/03/29 03:01:00.000,n,263,3.6,3.6,3.96,19.5,80,1004.32,0,0,0,0,0.036583
2022/03/29 03:02:00.000,n,260,6.12,4.68,7.2,19.5,78.8,1004.32,0,0,0,0,0.036583
2022/03/29 03:03:00.000,n,252,10.440002,9.36,12.24,19.4,78.7,1004.32,0,0,0,0,0.035706
2022/03/29 03:04:00.005,n,249,4.68,0.72,6.48,19.4,78.8,1004.32,0,0,0,0,0.03746
2022/03/29 03:05:00.000,n,285,2.88,2.16,3.96,19.4,79.1,1004.42,0,0,0,0,0.036583
2022/03/29 03:06:00.000,n,254,5.4,3.96,6.12,19.4,79,1004.42,0,0,0,0,0.03746
2022/03/29 03:07:00.003,n,272,3.6,2.52,3.96,19.4,79.6,1004.42,0,0,0,0,0.03746
2022/03/29 03:08:00.009,n,285,2.88,2.16,3.6,19.4,79.7,1004.42,0,0,0,0,0.036583
2022/03/29 03:09:00.014,n,244,6.84,6.12,7.2,19.5,79.6,1004.42,0,0,0,0,0.040054
2022/03/29 03:10:00.000,n,243,6.12,5.76,6.12,19.4,79.3,1004.42,0,0,0,0,0.038338
2022/03/29 03:11:00.000,n,289,4.32,3.6,5.04,19.4,79.9,1004.42,0,0,0,0,0.03746
2022/03/29 03:12:00.000,n,268,5.4,4.68,6.12,19.4,79.5,1004.42,0,0,0,0,0.038338
2022/03/29 03:13:00.002,n,248,4.32,3.96,4.32,19.4,79.6,1004.42,0,0,0,0,0.040054
2022/03/29 03:14:00.006,n,246,3.96,3.6,4.68,19.4,79.7,1004.42,0,0,0,0,0.036583
2022/03/29 03:15:00.000,n,226,2.52,2.16,2.88,19.4,80.4,1004.42,0,0,0,0,0.038338
2022/03/29 03:16:00.000,n,256,4.68,3.6,5.4,19.4,80.4,1004.42,0,0,0,0,0.03746
2022/03/29 03:17:00.005,n,251,6.12,5.04,6.84,19.4,80.3,1004.42,0,0,0,0,0.03746
2022/03/29 03:18:00.010,n,247,6.84,6.48,7.92,19.4,80,1004.32,0,0,0,0,0.036583
2022/03/29 03:19:00.000,n,234,1.44,1.08,1.8,19.3,80.1,1004.32,0,0,0,0,0.036583
2022/03/29 03:20:00.000,n,234,2.88,2.16,3.96,19.3,80.5,1004.42,0,0,0,0,0.038338
2022/03/29 03:21:00.000,n,166,1.44,0.72,1.8,19.3,80.4,1004.42,0,0,0,0,0.03746
2022/03/29 03:22:00.000,n,294,3.6,3.24,4.68,19.3,80.5,1004.42,0,0,0,0,0.039177
2022/03/29 03:23:00.004,n,268,5.04,4.68,5.4,19.3,80.6,1004.32,0,0,0,0,0.039177
2022/03/29 03:24:00.010,n,277,10.08,7.92,11.52,19.3,80.4,1004.32,0,0,0,0,0.038338
2022/03/29 03:25:00.000,n,192,1.44,0.72,1.8,19.3,80.5,1004.22,0,0,0,0,0.033112
2022/03/29 03:26:00.004,n,189,1.08,0.72,2.16,19.3,80.7,1004.22,0,0,0,0,0.033951
2022/03/29 03:27:00.010,n,283,4.32,3.6,5.04,19.3,80.7,1004.22,0,0,0,0,0.036583
2022/03/29 03:28:00.000,n,176,2.88,2.52,3.6,19.2,80.8,1004.22,0,0,0,0,0.035706
2022/03/29 03:29:00.000,n,261,2.16,1.44,2.88,19.2,81.1,1004.22,0,0,0,0,0.040054
2022/03/29 03:30:00.000,n,240,1.44,1.08,1.44,19.3,81.2,1004.22,0,0,0,0,0.038338
2022/03/29 03:31:00.000,n,237,4.32,3.6,5.04,19.3,81,1004.12,0,0,0,0,0.040932
2022/03/29 03:32:00.003,n,275,1.44,1.08,3.24,19.3,81.2,1004.12,0,0,0,0,0.038338
2022/03/29 03:33:00.008,n,287,2.16,1.44,2.88,19.3,81.2,1004.12,0,0,0,0,0.040054
2022/03/29 03:34:00.000,n,204,1.8,1.44,2.16,19.3,81.5,1004.12,0,0,0,0,0.033951
2022/03/29 03:35:00.001,n,281,3.6,2.52,4.68,19.3,81.6,1004.12,0,0,0,0,0.03746
2022/03/29 03:36:00.007,n,236,2.16,1.08,3.24,19.3,81.3,1004.12,0,0,0,0,0.040054
2022/03/29 03:37:00.000,n,29,0.72,0.36,1.44,19.3,81.6,1004.22,0,0,0,0,0.035706
2022/03/29 03:38:00.000,n,173,5.04,4.32,6.12,19.3,81.6,1004.22,0,0,0,0,0.035706
2022/03/29 03:39:00.000,n,181,4.32,3.6,5.4,19.3,81.5,1004.32,0,0,0,0,0.038338
2022/03/29 03:40:00.000,n,248,1.44,0.72,2.52,19.3,81.4,1004.32,0,0,0,0,0.03746
2022/03/29 03:41:00.000,n,280,3.24,2.16,4.68,19.3,81.5,1004.32,0,0,0,0,0.03746
2022/03/29 03:42:00.004,n,237,2.88,2.52,3.6,19.3,81.5,1004.32,0,0,0,0,0.039177
2022/03/29 03:43:00.009,n,291,2.88,2.16,2.88,19.3,82.1,1004.32,0,0,0,0,0.040054
2022/03/29 03:44:00.000,n,246,5.04,3.96,5.76,19.4,82,1004.32,0,0,0,0,0.036583
2022/03/29 03:45:00.003,n,152,1.44,1.08,1.8,19.4,81.7,1004.32,0,0,0,0,0.040054
2022/03/29 03:46:00.000,n,269,5.04,4.68,5.4,19.4,81.7,1004.32,0,0,0,0,0.038338
2022/03/29 03:47:00.000,n,269,6.48,5.04,7.92,19.3,81.5,1004.32,0,0,0,0,0.038338
2022/03/29 03:48:00.002,n,246,5.76,4.68,7.2,19.3,81.5,1004.32,0,0,0,0,0.039177
2022/03/29 03:49:00.000,n,249,8.28,7.92,8.64,19.3,81.8,1004.22,0,0,0,0,0.040054
2022/03/29 03:50:00.000,n,283,6.48,5.4,6.84,19.3,81.9,1004.22,0,0,0,0,0.040054
2022/03/29 03:51:00.001,n,264,3.96,3.6,4.68,19.3,81.6,1004.22,0,0,0,0,0.034828
2022/03/29 03:52:00.006,n,264,7.2,6.12,7.56,19.3,81.8,1004.32,0,0,0,0,0.038338
2022/03/29 03:53:00.010,n,253,10.08,7.92,11.16,19.3,81.6,1004.32,0,0,0,0,0.035706
2022/03/29 03:54:00.000,n,272,8.64,6.84,10.8,19.2,81.3,1004.32,0,0,0,0,0.038338
2022/03/29 03:55:00.000,n,312,5.4,4.32,6.12,19.2,82.1,1004.42,0,0,0,0,0.040054
2022/03/29 03:56:00.000,n,276,5.04,2.88,6.48,19.3,82,1004.42,0,0,0,0,0.038338
2022/03/29 03:57:00.000,n,234,5.04,3.96,5.76,19.2,81.3,1004.52,0,0,0,0,0.039177
2022/03/29 03:58:00.005,n,250,7.2,5.76,7.92,19.3,81.7,1004.52,0,0,0,0,0.039177
2022/03/29 03:59:00.000,n,273,4.68,4.32,5.04,19.2,81.4,1004.52,0,0,0,0,0.040932
2022/03/29 04:00:00.000,n,216,1.08,0.36,1.44,19.2,81.4,1004.62,0,0,0,0,0.040054
2022/03/29 04:01:00.004,n,265,2.52,2.16,2.52,19.2,81.8,1004.62,0,0,0,0,0.03746
2022/03/29 04:02:00.009,n,260,8.28,7.56,10.08,19.2,81.3,1004.62,0,0,0,0,0.039177
2022/03/29 04:03:00.015,n,220,4.32,3.6,5.4,19.2,81.2,1004.72,0,0,0,0,0.039177
2022/03/29 04:04:00.000,n,175,1.44,0.72,2.16,19.2,81.3,1004.72,0,0,0,0,0.035706
2022/03/29 04:05:00.000,n,215,3.96,3.24,4.32,19.2,81.2,1004.72,0,0,0,0,0.040054
2022/03/29 04:06:00.000,n,265,3.24,1.8,3.96,19.2,81.2,1004.82,0,0,0,0,0.039177
2022/03/29 04:07:00.000,n,227,3.24,2.88,3.96,19.2,81.2,1004.82,0,0,0,0,0.039177
2022/03/29 04:08:00.007,n,256,5.76,4.68,6.48,19.2,80.9,1004.82,0,0,0,0,0.03746
2022/03/29 04:09:00.004,n,228,2.88,2.16,3.96,19.2,81.1,1004.82,0,0,0,0,0.038338
2022/03/29 04:10:00.001,n,271,3.6,3.24,4.32,19.2,81,1004.92,0,0,0,0,0.038338
2022/03/29 04:11:00.000,n,275,5.4,5.04,6.12,19.2,80.7,1004.92,0,0,0,0,0.039177
2022/03/29 04:12:00.013,n,234,3.24,2.52,3.96,19.2,80.8,1004.92,0,0,0,0,0.035706
2022/03/29 04:13:00.000,n,263,4.68,3.96,5.04,19.2,80.8,1004.92,0,0,0,0,0.035706
2022/03/29 04:14:00.000,n,250,4.32,4.32,4.68,19.2,80.9,1004.92,0,0,0,0,0.03746
2022/03/29 04:15:00.004,n,278,5.4,5.04,6.48,19.2,80.8,1004.92,0,0,0,0,0.035706
2022/03/29 04:16:00.003,n,281,7.2,6.48,7.92,19.2,80.5,1004.92,0,0,0,0,0.038338
2022/03/29 04:17:00.000,n,270,8.28,7.56,9,19.2,80.5,1004.92,0,0,0,0,0.039177
2022/03/29 04:18:00.000,n,276,4.32,3.6,5.04,19.2,80.5,1004.92,0,0,0,0,0.032234
2022/03/29 04:19:00.010,n,264,5.76,5.4,5.76,19.2,80.4,1004.92,0,0,0,0,0.03746
2022/03/29 04:20:00.008,n,285,5.76,5.04,6.12,19.2,80.4,1004.92,0,0,0,0,0.03746
2022/03/29 04:21:00.004,n,264,7.92,6.48,8.64,19.2,80.3,1004.92,0,0,0,0,0.03746
2022/03/29 04:22:00.002,n,289,6.84,5.04,7.92,19.2,80.2,1004.82,0,0,0,0,0.040932
2022/03/29 04:23:00.000,n,240,10.08,8.64,11.52,19.2,80.1,1004.82,0,0,0,0,0.040054
2022/03/29 04:24:00.000,n,261,8.28,7.2,9,19.2,80,1004.82,0,0,0,0,0.036583
2022/03/29 04:25:00.000,n,249,9.72,8.64,10.08,19.2,79.9,1004.72,0,0,0,0,0.040932
2022/03/29 04:26:00.000,n,239,7.56,5.04,8.64,19.2,79.8,1004.72,0,0,0,0,0.039177
2022/03/29 04:27:00.004,n,269,5.04,3.96,6.12,19.2,80,1004.82,0,0,0,0,0.03746
2022/03/29 04:28:00.001,n,261,6.12,5.4,7.2,19.2,79.7,1004.82,0,0,0,0,0.035706
2022/03/29 04:29:00.014,n,261,9.72,8.64,11.16,19.2,79.6,1004.82,0,0,0,0,0.035706
2022/03/29 04:30:00.011,n,257,10.440002,10.08,11.16,19.2,79.5,1004.82,0,0,0,0,0.03746
2022/03/29 04:31:00.000,n,246,6.12,5.04,7.2,19.2,79.5,1004.92,0,0,0,0,0.03746
2022/03/29 04:32:00.000,n,254,10.8,7.56,12.24,19.2,79.4,1004.92,0,0,0,0,0.03746
2022/03/29 04:33:00.002,n,264,6.12,5.4,7.2,19.2,79.4,1004.82,0,0,0,0,0.036583
2022/03/29 04:34:00.000,n,286,5.76,4.32,7.92,19.3,79.5,1004.82,0,0,0,0,0.03746
2022/03/29 04:35:00.000,n,270,5.4,4.32,6.48,19.3,79.5,1004.82,0,0,0,0,0.036583
2022/03/29 04:36:00.008,n,263,9.72,9,11.16,19.3,79.4,1004.82,0,0,0,0,0.036583
2022/03/29 04:37:00.005,n,252,10.8,8.64,12.24,19.3,79.4,1004.82,0,0,0,0,0.035706
2022/03/29 04:38:00.002,n,285,7.92,6.84,9.36,19.3,79.3,1004.82,0,0,0,0,0.036583
2022/03/29 04:39:00.015,n,283,7.2,6.12,9,19.3,79.7,1004.92,0,0,0,0,0.036583
2022/03/29 04:40:00.000,n,251,10.440002,9,12.24,19.3,79.1,1004.92,0,0,0,0,0.035706
2022/03/29 04:41:00.000,n,258,16.2,14.76,17.64,19.3,79,1004.92,0,0,0,0,0.036583
2022/03/29 04:42:00.000,n,228,7.92,6.12,8.64,19.3,79,1004.82,0,0,0,0,0.038338
2022/03/29 04:43:00.006,n,252,6.12,4.32,8.64,19.3,79.4,1004.82,0,0,0,0,0.034828
2022/03/29 04:44:00.003,n,244,14.4,12.6,16.56,19.3,78.9,1004.82,0,0,0,0,0.036583
2022/03/29 04:45:00.000,n,272,15.84,15.12,18,19.3,78.9,1004.82,0,0,0,0,0.034828
2022/03/29 04:46:00.000,n,243,17.28,16.2,18,19.3,78.9,1004.82,0,0,0,0,0.035706
2022/03/29 04:47:00.009,n,267,10.08,9.36,11.16,19.3,78.9,1004.82,0,0,0,0,0.034828
2022/03/29 04:48:00.006,n,264,7.92,5.4,9.72,19.3,78.9,1004.82,0,0,0,0,0.035706
2022/03/29 04:49:00.000,n,240,7.56,6.84,9,19.3,79.4,1004.82,0,0,0,0,0.033951
2022/03/29 04:50:00.000,n,309,3.6,2.88,3.96,19.3,79.4,1004.82,0,0,0,0,0.034828
2022/03/29 04:51:00.000,n,252,6.12,5.76,7.92,19.3,79,1004.82,0,0,0,0,0.034828
2022/03/29 04:52:00.000,n,236,9,7.2,9.72,19.3,79,1004.82,0,0,0,0,0.035706
2022/03/29 04:53:00.007,n,239,5.04,3.96,6.12,19.3,79.1,1004.82,0,0,0,0,0.034828